Location: Umburanas
(4.5000°S, 37.9667°W)
Time: 23:28:03
(UTC+00:00)

Cosmos 1862 - Pass Details

Date: 19 November 2019
Orbit: 538 x 557 km, 82.5° (Epoch: 14 December)

Event Time Altitude Azimuth Distance (km) Brightness Sun altitude
Rises 20:40:21 0° 359° (N) 2,696 6.6 -3.9°
Reaches altitude 10° 20:42:29 10° 1° (N) 1,810 5.8 -4.4°
Maximum altitude 20:46:28 76° 87° (E) 569 3.3 -5.3°
Drops below altitude 10° 20:50:30 10° 172° (S) 1,834 6.2 -6.3°
Sets 20:52:41 0° 173° (S) 2,734 7.1 -6.8°
